Date String (YYYY-MM-DD hh:mm:ss) UTC,Instrument flags,absolute air pressure of the measurement (hPa),sample flow rate (lpm),inlet stack bypass flow (lpm),air temperature of the measurement (°C),ambient temperature measured by the external sensor (°C),aerosol sample conditioner tube jacket temperature (°C),OPC LED temperature (°C),internal box temperature (°C),relative humidity of the measurement (%),span deviation,mass concentration of particles derived from Lorenz-Mie calculation of OPC scattering (μg/m³),mass concentration of particles derived from Lorenz-Mie calculation of OPC scattering (μg/m³),mass concentration of particles derived from Lorenz-Mie calculation of OPC scattering (μg/m³)
DateTimeUTC,F1_M11,P_M11,Q1_M11,Q2_M11,T1_M11,T2_M11,T3_M11,T4_M11,T5_M11,U1_M11,ZSPAN_M11,X0_M11,X2_M11,X1_M11
2023-10-15 00:00:00,SystemResetWarning,0837.2,4.99,000.00,028.2,026.9,000.0,036.6,029.9,13.0,0002.4,0012.79,0005.60,0005.06
2023-10-15 00:01:00,SystemResetWarning,0837.2,5.01,000.00,028.2,026.9,000.0,036.6,029.9,13.0,0002.2,0012.25,0005.58,0005.05
2023-10-15 00:02:00,SystemResetWarning,0837.2,5.00,000.00,028.3,026.9,000.0,036.6,029.9,13.0,0002.2,0011.91,0005.57,0005.05
2023-10-15 00:03:00,SystemResetWarning,0837.2,5.00,000.00,028.3,026.9,000.0,036.6,029.9,13.0,0002.3,0011.99,0005.55,0005.03
2023-10-15 00:04:00,SystemResetWarning,0837.2,5.00,000.00,028.3,026.9,000.0,036.6,029.9,12.9,0001.7,0012.57,0005.56,0005.00
2023-10-15 00:05:00,SystemResetWarning,0837.2,5.00,000.00,028.3,026.9,000.0,036.7,029.9,12.9,0001.4,0012.53,0005.52,0004.99
2023-10-15 00:06:00,SystemResetWarning,0837.2,5.00,000.00,028.3,026.9,000.0,036.7,029.9,12.9,0001.4,0012.77,0005.52,0004.99
2023-10-15 00:07:00,SystemResetWarning,0837.2,5.00,000.00,028.3,026.9,000.0,036.7,029.9,12.9,0002.1,0013.66,0005.48,0004.98
2023-10-15 00:08:00,SystemResetWarning,0837.2,5.00,000.00,028.3,026.9,000.0,036.7,029.9,12.9,0002.1,0013.66,0005.48,0004.98
2023-10-15 00:09:00,SystemResetWarning,0837.2,5.00,000.00,028.3,026.9,000.0,036.7,029.8,12.9,0001.2,0013.68,0005.53,0004.98
2023-10-15 00:10:00,SystemResetWarning,0837.2,5.00,000.00,028.2,026.9,000.0,036.7,029.8,12.9,0000.6,0013.14,0005.53,0004.97
2023-10-15 00:11:00,SystemResetWarning,0837.2,5.00,000.00,028.3,026.9,000.0,036.7,029.8,12.9,0000.8,0013.03,0005.56,0004.95
2023-10-15 00:12:00,SystemResetWarning,0837.2,4.99,000.00,028.2,026.9,000.0,036.7,029.8,13.0,0001.3,0012.66,0005.54,0004.94
2023-10-15 00:13:00,SystemResetWarning,0837.2,5.00,000.00,028.2,026.9,000.0,036.7,029.8,13.0,0000.8,0012.90,0005.49,0004.93
2023-10-15 00:14:00,SystemResetWarning,0837.3,5.00,000.00,028.2,026.9,000.0,036.7,029.8,13.0,0000.0,0012.84,0005.47,0004.94
2023-10-15 00:15:00,SystemResetWarning,0837.2,5.00,000.00,028.2,026.9,000.0,036.7,029.8,13.0,0001.0,0012.54,0005.42,0004.94
2023-10-15 00:16:00,SystemResetWarning,0837.2,5.00,000.00,028.2,026.9,000.0,036.7,029.8,13.0,0001.3,0012.35,0005.42,0004.93
2023-10-15 00:17:00,SystemResetWarning,0837.2,5.01,000.00,028.2,026.9,000.0,036.7,029.9,13.0,0001.3,0011.85,0005.41,0004.93
2023-10-15 00:18:00,SystemResetWarning,0837.2,5.01,000.00,028.2,026.9,000.0,036.7,029.9,13.0,0000.5,0010.45,0005.43,0004.94
2023-10-15 00:19:00,SystemResetWarning,0837.2,5.00,000.00,028.2,026.9,000.0,036.7,029.8,13.1,0000.8,0011.15,0005.43,0004.95
2023-10-15 00:20:00,SystemResetWarning,0837.2,5.01,000.00,028.2,026.9,000.0,036.7,029.8,13.1,0001.3,0011.75,0005.39,0004.94
2023-10-15 00:21:00,SystemResetWarning,0837.2,5.00,000.00,028.2,026.9,000.0,036.7,029.8,13.1,0001.5,0011.75,0005.38,0004.94
2023-10-15 00:22:00,SystemResetWarning,0837.2,5.00,000.00,028.2,026.9,000.0,036.7,029.8,13.1,0001.3,0012.07,0005.37,0004.95
2023-10-15 00:23:00,SystemResetWarning,0837.2,5.00,000.00,028.2,026.9,000.0,036.7,029.8,13.1,0001.4,0012.55,0005.38,0004.96
2023-10-15 00:24:00,SystemResetWarning,0837.2,5.00,000.00,028.2,026.9,000.0,036.7,029.8,13.1,0001.1,0013.23,0005.38,0004.95
2023-10-15 00:25:00,SystemResetWarning,0837.2,5.00,000.00,028.2,026.9,000.0,036.7,029.8,13.1,0000.9,0013.44,0005.41,0004.95
2023-10-15 00:26:00,SystemResetWarning,0837.2,5.00,000.00,028.2,026.9,000.0,036.7,029.8,13.1,0001.1,0013.66,0005.42,0004.95
2023-10-15 00:27:00,SystemResetWarning,0837.2,5.00,000.00,028.2,026.9,000.0,036.7,029.8,13.1,0000.8,0013.53,0005.43,0004.96
2023-10-15 00:28:00,SystemResetWarning,0837.2,5.00,000.00,028.2,026.9,000.0,036.7,029.8,13.1,0000.8,0013.22,0005.45,0004.96
2023-10-15 00:29:00,SystemResetWarning,0837.2,5.00,000.00,028.2,026.9,000.0,036.7,029.8,13.1,-000.2,0013.33,0005.47,0004.96
2023-10-15 00:30:00,SystemResetWarning,0837.2,5.00,000.00,028.2,026.9,000.0,036.7,029.8,13.0,-000.1,0012.67,0005.42,0004.94
2023-10-15 00:31:00,SystemResetWarning,0837.2,5.00,000.00,028.2,026.9,000.0,036.7,029.8,13.0,-000.4,0012.20,0005.44,0004.94
2023-10-15 00:32:00,SystemResetWarning,0837.2,5.00,000.00,028.2,026.9,000.0,036.7,029.8,13.0,-000.6,0012.01,0005.45,0004.94
2023-10-15 00:33:00,SystemResetWarning,0837.2,5.01,000.00,028.2,026.9,000.0,036.7,029.8,13.0,0000.3,0011.56,0005.44,0004.94
2023-10-15 00:34:00,SystemResetWarning,0837.3,5.00,000.00,028.2,026.8,000.0,036.7,029.8,13.0,-000.3,0011.24,0005.43,0004.93
2023-10-15 00:35:00,SystemResetWarning,0837.2,5.00,000.00,028.2,026.8,000.0,036.7,029.8,13.0,-000.4,0010.80,0005.43,0004.93
2023-10-15 00:36:00,SystemResetWarning,0837.2,5.00,000.00,028.2,026.8,000.0,036.7,029.8,13.0,-000.5,0010.22,0005.42,0004.94
2023-10-15 00:37:00,SystemResetWarning,0837.2,5.00,000.00,028.2,026.8,000.0,036.7,029.8,13.1,-000.3,0009.76,0005.43,0004.94
2023-10-15 00:38:00,SystemResetWarning,0837.2,5.00,000.00,028.2,026.8,000.0,036.7,029.7,13.1,0000.3,0009.63,0005.42,0004.95
2023-10-15 00:39:00,SystemResetWarning,0837.2,5.00,000.00,028.2,026.8,000.0,036.7,029.8,13.1,0000.7,0009.57,0005.39,0004.95
2023-10-15 00:40:00,SystemResetWarning,0837.2,4.99,000.00,028.2,026.8,000.0,036.7,029.8,13.0,0001.5,0009.42,0005.34,0004.93
2023-10-15 00:41:00,SystemResetWarning,0837.4,4.99,000.00,028.2,026.8,000.0,036.7,029.7,13.0,0001.0,0009.41,0005.37,0004.94
2023-10-15 00:42:00,SystemResetWarning,0837.2,4.99,000.00,028.2,026.8,000.0,036.7,029.7,13.0,0000.6,0009.12,0005.36,0004.94
2023-10-15 00:43:00,SystemResetWarning,0837.2,5.00,000.00,028.2,026.8,000.0,036.7,029.7,13.0,0000.1,0009.08,0005.34,0004.93
2023-10-15 00:44:00,SystemResetWarning,0837.3,5.00,000.00,028.2,026.8,000.0,036.7,029.7,13.0,0000.6,0009.75,0005.34,0004.93
2023-10-15 00:45:00,SystemResetWarning,0837.2,5.00,000.00,028.2,026.7,000.0,036.6,029.7,13.0,0001.2,0010.33,0005.38,0004.95
2023-10-15 00:46:00,SystemResetWarning,0837.2,5.00,000.00,028.1,026.7,000.0,036.6,029.7,13.0,0002.5,0009.89,0005.40,0004.96
2023-10-15 00:47:00,SystemResetWarning,0837.2,4.99,000.00,028.1,026.7,000.0,036.6,029.7,13.0,0003.1,0010.66,0005.42,0004.97
2023-10-15 00:48:00,SystemResetWarning,0837.2,4.99,000.00,028.1,026.7,000.0,036.6,029.7,13.0,0003.2,0010.72,0005.41,0004.96
2023-10-15 00:49:00,SystemResetWarning,0837.2,4.99,000.00,028.1,026.7,000.0,036.6,029.7,13.1,0002.7,0010.68,0005.41,0004.96
2023-10-15 00:50:00,SystemResetWarning,0837.2,5.01,000.00,028.1,026.7,000.0,036.6,029.6,13.1,0001.9,0010.69,0005.42,0004.95
2023-10-15 00:51:00,SystemResetWarning,0837.2,5.01,000.00,028.1,026.7,000.0,036.6,029.7,13.1,0001.8,0010.61,0005.41,0004.95
2023-10-15 00:52:00,SystemResetWarning,0837.2,5.01,000.00,028.1,026.7,000.0,036.6,029.7,13.1,0002.5,0010.50,0005.38,0004.94
2023-10-15 00:53:00,SystemResetWarning,0837.2,5.00,000.00,028.1,026.7,000.0,036.6,029.7,13.1,0002.1,0010.82,0005.35,0004.92
2023-10-15 00:54:00,SystemResetWarning,0837.2,5.00,000.00,028.1,026.7,000.0,036.6,029.7,13.1,0003.1,0011.18,0005.34,0004.92
2023-10-15 00:55:00,SystemResetWarning,0837.2,5.00,000.00,028.1,026.7,000.0,036.6,029.7,13.1,0003.1,0011.04,0005.35,0004.91
2023-10-15 00:56:00,SystemResetWarning,0837.2,5.00,000.00,028.1,026.7,000.0,036.6,029.7,13.1,0002.6,0010.69,0005.33,0004.90
2023-10-15 00:57:00,SystemResetWarning,0837.2,5.00,000.00,028.1,026.8,000.0,036.6,029.7,13.1,0001.9,0010.39,0005.33,0004.88
2023-10-15 00:58:00,SystemResetWarning,0837.2,5.00,000.00,028.1,026.8,000.0,036.6,029.8,13.1,0001.9,0009.90,0005.34,0004.87
2023-10-15 00:59:00,SystemResetWarning,0837.2,5.00,000.00,028.2,026.8,000.0,036.6,029.8,13.1,0002.1,0010.33,0005.34,0004.87
